Regional Weather Roundup
Issued by NWS Cleveland, OH

Home | Current Version | Previous Version | Graphics & Text | Print | Product List | Glossary On
Versions: 1 2 3 4 5 6 7 8 9 10 11 12 13 14 15 16 17 18 19 20 21 22 23 24 25 26 27 28 29 30 31 32 33 34 35 36 37 38 39 40 41 42 43 44 45 46 47 48 49 50
000
ASUS41 KCLE 080800
RWRCLE
OHIO REGIONAL WEATHER ROUNDUP
NATIONAL WEATHER SERVICE WILMINGTON, OH
300 AM EST THU DEC 08 2016

NOTE: "FAIR" INDICATES FEW OR NO CLOUDS BELOW 12,000 FEET WITH NO
SIGNIFICANT WEATHER AND/OR OBSTRUCTIONS TO VISIBILITY.

OHZ001>008-015>018-024>027-034-035-043-044-080900-
   NORTHWEST OHIO

CITY           SKY/WX    TMP DP  RH WIND       PRES   REMARKS
DEFIANCE       CLOUDY    27  17  66 W9G20     30.11R WCI  18
FINDLAY        CLOUDY    28  18  66 W18       30.09S WCI  15
TOLEDO EXPRESS CLOUDY    27  19  72 W21G29    30.07S WCI  13
TOLEDO EXEC    CLOUDY    28  19  69 W17G26    30.08S WCI  16
LIMA           MOCLDY    26  20  77 W18       30.11R WCI  13
$$

OHZ009>014-019>023-028>033-038-089-080900-
   NORTHEAST OHIO

CITY           SKY/WX    TMP DP  RH WIND       PRES   REMARKS
CLE-HOPKINS    MOCLDY    30  20  66 W15       30.08R WCI  19
CLE-LAKEFRONT  CLOUDY    32  22  66 SW20      30.05S WCI  20
CUY CO. ARPT   NOT AVBL
LORAIN-ELYRIA  CLOUDY    29  20  69 W14       30.07R WCI  18
ASHTABULA      CLOUDY    32  24  72 SW10      30.02S WCI  24
AKRON-CANTON   CLOUDY    30  20  66 W14       30.04S WCI  19
WOOSTER        NOT AVBL
MANSFIELD      CLOUDY    28  20  71 SW9G18    30.06S WCI  19
YOUNGSTOWN     CLOUDY    31  20  63 W12       30.02S WCI  22
$$

OHZ042-051>053-060>062-070>072-077>081-080900-
  SOUTHWEST OHIO

CITY           SKY/WX    TMP DP  RH WIND       PRES   REMARKS
CINC-COVINGTON CLOUDY    29  21  72 W9        30.17R WCI  20
CINC-LUNKEN    MOCLDY    31  22  69 W10       30.21R WCI  22
HAMILTON       MOCLDY    30  22  72 W7        30.19S WCI  23
DAYTON         NOT AVBL
WRIGHT-PAT AFB FAIR      29  20  68 W12       30.15R WCI  20
DAYTON GENERAL CLOUDY    29  20  69 W7        30.14S WCI  22
WILMINGTON     MOCLDY    28  21  75 W13       30.14R WCI  17
$$

OHZ036-037-039>041-045>050-054>059-063>069-073>076-082>088-080900-
  CENTRAL AND SOUTHEAST OHIO

CITY           SKY/WX    TMP DP  RH WIND       PRES   REMARKS
COLUMBUS       CLOUDY    31  24  75 NW9       30.12S WCI  23
OSU AIRPORT    CLOUDY    30  23  75 W15G21    30.11S WCI  19
BOLTON FIELD   NOT AVBL
RICKENBACK AFB NOT AVBL
NEWARK         CLOUDY    32  23  69 W12       30.10S WCI  23
MARION         CLOUDY    29  21  72 W14       30.10R WCI  18
LANCASTER      CLOUDY    32  25  75 W9        30.12S WCI  24
ZANESVILLE     CLOUDY    32  24  72 W5        30.10R WCI  27
NEW PHILLY     FAIR      32  24  72 W6        30.08S WCI  26
$$



USA.gov is the U.S. government's official web portal to all federal, state and local government web resources and services.